DW0630 Weather Reports


Display with metric or nautical units.
time (UTC)temp
F
wind
direction
speed
MPH
gust
MPH
rain 1hr
in
rain 24hr
in
rain mn
in
humidity
%
barometer
mb
20180818002540 62 198 10.0 14.0 0.00 0.00 0.00 83 1020.5
20180818002043 62 193 7.0 14.0 0.00 0.00 0.00 82 1020.5
20180818001540 62 191 7.0 14.0 0.00 0.00 0.00 82 1020.5
20180818001043 62 190 9.0 14.0 0.00 0.00 0.00 82 1020.5
20180818000539 62 187 10.0 13.0 0.00 0.00 0.00 82 1020.6
20180818000039 62 198 10.0 17.0 0.00 0.00 0.00 82 1020.6
20180817235539 62 200 10.0 14.0 0.00 0.00 0.00 81 1020.7
20180817235042 62 198 11.0 14.0 0.00 0.00 0.00 81 1020.7
20180817234539 62 201 12.0 16.0 0.00 0.00 0.00 81 1020.7
20180817234043 62 194 10.0 15.0 0.00 0.00 0.00 81 1020.7
20180817233539 62 198 10.0 14.0 0.00 0.00 0.00 81 1020.7
20180817233043 62 199 9.0 14.0 0.00 0.00 0.00 81 1020.8
20180817232539 62 203 10.0 15.0 0.00 0.00 0.00 81 1020.8
20180817232042 62 215 9.0 14.0 0.00 0.00 0.00 81 1020.9
20180817231539 62 217 7.0 15.0 0.00 0.00 0.00 80 1020.8
20180817231042 62 216 7.0 12.0 0.00 0.00 0.00 80 1020.9
20180817230540 62 219 10.0 13.0 0.00 0.00 0.00 80 1020.9
20180817230039 62 216 7.0 13.0 0.00 0.00 0.00 80 1020.8
20180817225539 62 212 9.0 13.0 0.00 0.00 0.00 80 1020.8
20180817225042 62 209 10.0 13.0 0.00 0.00 0.00 80 1020.8
20180817224539 62 198 12.0 16.0 0.00 0.00 0.00 80 1020.8
20180817224043 62 200 11.0 16.0 0.00 0.00 0.00 80 1020.8
20180817223540 62 196 12.0 15.0 0.00 0.00 0.00 80 1020.7
20180817223042 62 209 10.0 16.0 0.00 0.00 0.00 81 1020.7
20180817222539 62 205 11.0 17.0 0.00 0.00 0.00 81 1020.6
20180817222042 62 209 12.0 18.0 0.00 0.00 0.00 81 1020.6
20180817221539 62 207 12.0 17.0 0.00 0.00 0.00 81 1020.6
20180817221042 62 203 12.0 16.0 0.00 0.00 0.00 81 1020.6
20180817220539 62 208 12.0 20.0 0.00 0.00 0.00 80 1020.7
20180817220039 62 211 10.0 15.0 0.00 0.00 0.00 80 1020.9
20180817215539 62 219 9.0 15.0 0.00 0.00 0.00 80 1021.0
20180817215042 62 222 9.0 13.0 0.00 0.00 0.00 80 1021.0
20180817214538 62 215 11.0 15.0 0.00 0.00 0.00 80 1020.9
20180817214042 62 225 11.0 17.0 0.00 0.00 0.00 80 1020.9
20180817213538 62 226 9.0 14.0 0.00 0.00 0.00 80 1020.9
20180817212538 62 220 7.0 12.0 0.00 0.00 0.00 80 1020.9
20180817212042 62 233 6.0 10.0 0.00 0.00 0.00 80 1020.8
20180817211539 62 234 6.0 9.0 0.00 0.00 0.00 80 1020.8
20180817211042 62 234 6.0 10.0 0.00 0.00 0.00 80 1020.8
20180817210539 62 234 5.0 9.0 0.00 0.00 0.00 80 1020.8
20180817210038 62 234 7.0 10.0 0.00 0.00 0.00 79 1020.8
20180817205539 62 235 5.0 10.0 0.00 0.00 0.00 79 1020.8
20180817205042 62 234 6.0 10.0 0.00 0.00 0.00 79 1020.7
20180817204538 62 228 10.0 13.0 0.00 0.00 0.00 79 1020.6
20180817204042 62 231 7.0 12.0 0.00 0.00 0.00 79 1020.6
20180817203539 62 233 7.0 12.0 0.00 0.00 0.00 79 1020.6
20180817203042 62 232 6.0 10.0 0.00 0.00 0.00 78 1020.6
20180817202538 62 232 6.0 10.0 0.00 0.00 0.00 78 1020.6
20180817202041 62 232 8.0 12.0 0.00 0.00 0.00 78 1020.6
20180817201538 63 235 9.0 13.0 0.00 0.00 0.00 78 1020.6
20180817201041 63 241 6.0 12.0 0.00 0.00 0.00 78 1020.7
20180817200539 63 242 6.0 9.0 0.00 0.00 0.00 77 1020.7
20180817200038 63 242 7.0 12.0 0.00 0.00 0.00 77 1020.7
20180817195538 63 240 6.0 12.0 0.00 0.00 0.00 77 1020.7
20180817195041 63 240 7.0 12.0 0.00 0.00 0.00 77 1020.6
20180817194538 63 242 6.0 12.0 0.00 0.00 0.00 77 1020.6
20180817194041 63 242 5.0 10.0 0.00 0.00 0.00 76 1020.6
20180817193539 63 242 5.0 7.0 0.00 0.00 0.00 76 1020.7
20180817193044 63 242 5.0 8.0 0.00 0.00 0.00 76 1020.5
20180817192538 63 242 6.0 10.0 0.00 0.00 0.00 75 1020.5
20180817192041 64 242 7.0 13.0 0.00 0.00 0.00 75 1020.5
20180817191538 64 249 12.0 16.0 0.00 0.00 0.00 74 1020.5
20180817191041 64 245 10.0 16.0 0.00 0.00 0.00 74 1020.5
20180817190538 64 255 12.0 16.0 0.00 0.00 0.00 74 1020.4
20180817190038 64 268 10.0 14.0 0.00 0.00 0.00 73 1020.4
20180817185537 64 252 8.0 14.0 0.00 0.00 0.00 73 1020.3
20180817185041 64 275 9.0 15.0 0.00 0.00 0.00 73 1020.5
20180817184538 64 277 6.0 12.0 0.00 0.00 0.00 73 1020.4
20180817184041 64 277 6.0 12.0 0.00 0.00 0.00 72 1020.3
20180817183538 64 277 7.0 12.0 0.00 0.00 0.00 72 1020.3
20180817183044 64 277 9.0 12.0 0.00 0.00 0.00 72 1020.2
20180817182538 64 278 11.0 16.0 0.00 0.00 0.00 71 1020.2
20180817182041 64 280 7.0 16.0 0.00 0.00 0.00 71 1020.1
20180817181538 64 281 10.0 13.0 0.00 0.00 0.00 71 1020.1
20180817181041 65 276 9.0 13.0 0.00 0.00 0.00 71 1020.0
20180817180538 65 274 10.0 13.0 0.00 0.00 0.00 70 1020.0
20180817180038 65 266 8.0 12.0 0.00 0.00 0.00 70 1020.1
20180817175538 65 263 10.0 14.0 0.00 0.00 0.00 69 1020.1
20180817175041 65 267 8.0 16.0 0.00 0.00 0.00 69 1020.0
20180817174538 65 258 12.0 18.0 0.00 0.00 0.00 67 1020.1
20180817174040 66 262 10.0 15.0 0.00 0.00 0.00 67 1020.0
20180817173538 66 275 9.0 14.0 0.00 0.00 0.00 67 1020.0
20180817173041 65 268 12.0 16.0 0.00 0.00 0.00 67 1020.1
20180817172538 66 266 10.0 14.0 0.00 0.00 0.00 67 1020.2
20180817172041 66 270 13.0 17.0 0.00 0.00 0.00 67 1020.1
20180817171538 66 278 13.0 16.0 0.00 0.00 0.00 69 1020.0
20180817171040 66 280 9.0 15.0 0.00 0.00 0.00 69 1020.0
20180817170537 66 288 9.0 17.0 0.00 0.00 0.00 69 1020.0
20180817170038 66 285 13.0 17.0 0.00 0.00 0.00 68 1020.0
20180817165538 67 286 12.0 18.0 0.00 0.00 0.00 68 1019.9
20180817165040 67 280 11.0 16.0 0.00 0.00 0.00 67 1019.9
20180817164537 66 277 10.0 14.0 0.00 0.00 0.00 67 1019.9
20180817164041 66 259 11.0 16.0 0.00 0.00 0.00 65 1019.8
20180817163538 66 252 9.0 13.0 0.00 0.00 0.00 66 1019.8
20180817163040 66 242 11.0 14.0 0.00 0.00 0.00 65 1019.8
20180817162538 66 257 12.0 15.0 0.00 0.00 0.00 65 1019.8
20180817162041 66 269 8.0 12.0 0.00 0.00 0.00 65 1019.7
20180817161537 66 250 11.0 15.0 0.00 0.00 0.00 64 1019.7
20180817161040 67 266 9.0 15.0 0.00 0.00 0.00 64 1019.8
20180817160538 67 275 8.0 13.0 0.00 0.00 0.00 64 1019.7
20180817160038 67 282 12.0 18.0 0.00 0.00 0.00 63 1019.7
20180817155537 67 257 9.0 12.0 0.00 0.00 0.00 64 1019.7
20180817155040 67 245 9.0 16.0 0.00 0.00 0.00 63 1019.7
20180817154537 68 273 12.0 17.0 0.00 0.00 0.00 63 1019.7
20180817154040 67 262 12.0 15.0 0.00 0.00 0.00 62 1019.6
20180817153537 67 274 11.0 15.0 0.00 0.00 0.00 63 1019.7
20180817153041 68 251 11.0 15.0 0.00 0.00 0.00 62 1019.8
20180817152538 68 261 7.0 12.0 0.00 0.00 0.00 64 1019.8
20180817152040 68 261 6.0 15.0 0.00 0.00 0.00 64 1019.8
20180817151538 68 250 11.0 16.0 0.00 0.00 0.00 63 1019.8
20180817151040 68 252 13.0 17.0 0.00 0.00 0.00 61 1020.0
20180817150537 68 242 15.0 20.0 0.00 0.00 0.00 62 1019.9
20180817150037 68 267 12.0 16.0 0.00 0.00 0.00 64 1019.9
20180817145537 67 268 9.0 16.0 0.00 0.00 0.00 65 1020.0
20180817145040 67 263 11.0 21.0 0.00 0.00 0.00 63 1020.0
20180817144537 67 275 13.0 18.0 0.00 0.00 0.00 63 1020.1
20180817144040 67 260 12.0 16.0 0.00 0.00 0.00 63 1020.1
20180817143537 67 253 12.0 16.0 0.00 0.00 0.00 64 1020.2
20180817143040 67 265 11.0 16.0 0.00 0.00 0.00 63 1020.2
20180817142537 67 269 10.0 16.0 0.00 0.00 0.00 64 1020.1
20180817142040 67 264 10.0 16.0 0.00 0.00 0.00 63 1020.1
20180817141537 67 272 12.0 16.0 0.00 0.00 0.00 61 1020.1
20180817141040 67 273 13.0 15.0 0.00 0.00 0.00 60 1020.2
20180817140537 68 270 10.0 15.0 0.00 0.02 0.00 60 1020.2
20180817140036 69 261 9.0 16.0 0.00 0.03 0.00 58 1020.2
20180817135537 69 247 14.0 18.0 0.00 0.04 0.00 58 1020.2
20180817135039 68 255 12.0 17.0 0.00 0.06 0.00 60 1020.1
20180817134537 68 277 13.0 17.0 0.00 0.08 0.00 60 1020.2
20180817134040 68 237 10.0 15.0 0.00 0.11 0.00 60 1020.1
20180817133538 68 275 12.0 15.0 0.00 0.14 0.00 60 1020.1
20180817133040 69 249 14.0 18.0 0.00 0.16 0.00 60 1020.3
20180817132537 69 247 14.0 20.0 0.00 0.20 0.00 60 1020.3
20180817132039 70 250 14.0 20.0 0.00 0.23 0.00 58 1020.3
20180817131537 69 263 13.0 18.0 0.00 0.25 0.00 57 1020.3
20180817131040 69 271 10.0 15.0 0.00 0.27 0.00 57 1020.3
20180817130537 69 244 12.0 17.0 0.00 0.29 0.00 58 1020.3
20180817130036 69 279 12.0 17.0 0.00 0.32 0.00 59 1020.3
20180817125537 69 276 9.0 17.0 0.00 0.34 0.00 61 1020.3
20180817125040 68 265 12.0 16.0 0.00 0.37 0.00 61 1020.3
20180817124537 67 231 14.0 17.0 0.00 0.40 0.00 63 1020.2
20180817124039 67 265 12.0 18.0 0.00 0.42 0.00 62 1020.2
20180817123537 67 247 11.0 16.0 0.00 0.44 0.00 63 1020.4
20180817123040 68 238 8.0 12.0 0.00 0.45 0.00 62 1020.4
20180817122537 68 260 10.0 14.0 0.00 0.46 0.00 62 1020.4
20180817122039 68 263 8.0 15.0 0.00 0.48 0.00 63 1020.4
20180817121536 67 242 10.0 15.0 0.00 0.49 0.00 63 1020.4
20180817121040 67 243 12.0 18.0 0.00 0.50 0.00 65 1020.4
20180817120537 67 235 14.0 20.0 0.00 0.51 0.00 63 1020.4
20180817120037 67 260 10.0 20.0 0.00 0.52 0.00 65 1020.4
20180817115536 67 237 10.0 15.0 0.00 0.52 0.00 65 1020.3
20180817115039 67 245 10.0 15.0 0.00 0.52 0.00 63 1020.3
20180817114536 68 230 10.0 17.0 0.00 0.52 0.00 62 1020.2
20180817114040 69 234 12.0 20.0 0.00 0.52 0.00 64 1020.2
20180817113536 68 224 6.0 15.0 0.00 0.52 0.00 65 1020.2
20180817113039 67 257 6.0 17.0 0.00 0.52 0.00 65 1020.2
20180817112536 67 253 11.0 16.0 0.00 0.52 0.00 64 1020.3
20180817112039 67 256 9.0 13.0 0.00 0.53 0.00 65 1020.3
20180817111537 67 226 7.0 16.0 0.00 0.53 0.00 66 1020.3
20180817111039 67 207 10.0 16.0 0.00 0.53 0.00 68 1020.3
20180817110536 67 235 9.0 13.0 0.00 0.53 0.00 68 1020.3
20180817110037 66 274 8.0 16.0 0.00 0.53 0.00 68 1020.3
20180817105536 65 269 9.0 13.0 0.00 0.54 0.00 70 1020.3
20180817105039 65 241 10.0 14.0 0.00 0.55 0.00 72 1020.4
20180817104536 65 238 7.0 13.0 0.00 0.55 0.00 74 1020.5
20180817104039 65 239 9.0 12.0 0.00 0.55 0.00 73 1020.4
20180817103536 65 243 6.0 10.0 0.00 0.56 0.00 74 1020.4
20180817103039 64 244 7.0 12.0 0.00 0.56 0.00 76 1020.4
20180817102537 64 244 5.0 10.0 0.00 0.56 0.00 75 1020.4
20180817102039 64 244 3.0 7.0 0.00 0.56 0.00 74 1020.4
20180817101536 64 244 8.0 14.0 0.00 0.56 0.00 75 1020.4
20180817101039 64 257 8.0 14.0 0.00 0.57 0.00 75 1020.4
20180817100536 64 274 9.0 14.0 0.00 0.58 0.00 76 1020.4
20180817100036 64 287 7.0 12.0 0.00 0.59 0.00 76 1020.5
20180817095536 63 287 9.0 13.0 0.00 0.60 0.00 76 1020.6
20180817095038 63 287 6.0 10.0 0.00 0.60 0.00 78 1020.6
20180817094536 63 287 4.0 10.0 0.00 0.60 0.00 78 1020.6
20180817094039 63 287 6.0 10.0 0.00 0.60 0.00 77 1020.7
20180817093536 63 287 6.0 10.0 0.00 0.61 0.00 77 1020.6
20180817093039 63 287 5.0 9.0 0.00 0.61 0.00 77 1020.5
20180817092536 63 287 5.0 8.0 0.00 0.61 0.00 78 1020.5
20180817092039 63 287 6.0 10.0 0.00 0.61 0.00 78 1020.4
20180817091536 62 287 9.0 13.0 0.00 0.61 0.00 79 1020.4
20180817091038 62 287 8.0 12.0 0.00 0.61 0.00 79 1020.3
20180817090535 63 287 5.0 10.0 0.00 0.61 0.00 81 1020.3
20180817090036 62 287 5.0 6.0 0.00 0.61 0.00 81 1020.2
20180817085535 62 287 6.0 9.0 0.00 0.61 0.00 80 1020.2
20180817085039 63 287 3.0 6.0 0.00 0.61 0.00 82 1020.2
20180817084536 62 287 2.0 6.0 0.00 0.61 0.00 83 1020.2
20180817084039 62 287 1.0 5.0 0.00 0.61 0.00 83 1020.2
20180817083535 61 287 0.0 6.0 0.00 0.61 0.00 83 1020.1
20180817083039 61 287 1.0 5.0 0.00 0.61 0.00 83 1020.0
20180817082535 61 287 0.0 5.0 0.00 0.61 0.00 84 1019.9
20180817082039 61 287 2.0 6.0 0.00 0.61 0.00 84 1019.9
20180817081535 61 287 4.0 5.0 0.00 0.61 0.00 84 1019.9
20180817081039 60 287 6.0 10.0 0.00 0.61 0.00 85 1019.9
20180817080535 60 287 3.0 5.0 0.00 0.61 0.00 86 1019.9
20180817080036 59 287 0.0 0.0 0.00 0.61 0.00 86 1019.9
20180817075535 59 287 0.0 0.0 0.00 0.61 0.00 86 1019.6
20180817075039 59 287 0.0 3.0 0.00 0.61 0.00 86 1019.7
20180817074536 59 287 0.0 3.0 0.00 0.61 0.00 86 1019.8
20180817074038 59 287 0.0 0.0 0.00 0.61 0.00 87 1019.8
20180817073535 58 287 0.0 3.0 0.00 0.61 0.00 87 1019.7
20180817073038 58 287 2.0 5.0 0.00 0.61 0.00 87 1019.6
20180817072536 58 287 2.0 3.0 0.00 0.61 0.00 88 1019.5
20180817072038 58 287 1.0 5.0 0.00 0.61 0.00 88 1019.6
20180817071535 58 287 0.0 3.0 0.00 0.61 0.00 89 1019.6
20180817071038 58 287 0.0 3.0 0.00 0.61 0.00 89 1019.4
20180817070535 58 287 0.0 0.0 0.00 0.61 0.00 89 1019.4
20180817070036 58 287 0.0 0.0 0.00 0.61 0.00 89 1019.4
20180817065535 57 287 2.0 5.0 0.00 0.61 0.00 90 1019.3
20180817065038 57 287 3.0 5.0 0.00 0.61 0.00 90 1019.3
20180817064535 57 287 3.0 6.0 0.00 0.61 0.00 90 1019.3
20180817064038 57 287 0.0 0.0 0.00 0.61 0.00 90 1019.3
20180817063535 57 287 0.0 0.0 0.00 0.61 0.00 90 1019.3
20180817063038 57 287 1.0 3.0 0.00 0.61 0.00 90 1019.2
20180817062535 57 287 3.0 7.0 0.00 0.61 0.00 90 1019.1
20180817062037 56 287 5.0 8.0 0.00 0.61 0.00 90 1019.1
20180817061535 56 287 3.0 6.0 0.00 0.61 0.00 90 1019.1
20180817061038 56 287 4.0 7.0 0.00 0.61 0.00 91 1019.0
20180817060535 56 287 0.0 0.0 0.00 0.61 0.00 91 1019.0
20180817060034 56 287 0.0 0.0 0.00 0.61 0.00 91 1019.0
20180817055535 55 287 0.0 0.0 0.00 0.61 0.00 91 1018.8
20180817055038 55 287 0.0 3.0 0.00 0.61 0.00 91 1018.6
20180817054535 55 287 2.0 3.0 0.00 0.61 0.00 91 1018.5
20180817054038 55 287 3.0 5.0 0.00 0.61 0.00 91 1018.5
20180817053535 55 287 3.0 6.0 0.00 0.61 0.00 91 1018.4
20180817053037 55 287 3.0 6.0 0.00 0.61 0.00 91 1018.3
20180817052536 54 287 3.0 5.0 0.00 0.61 0.00 91 1018.3
20180817052038 54 287 5.0 6.0 0.00 0.61 0.00 91 1018.2
20180817051534 54 287 2.0 5.0 0.00 0.61 0.00 91 1018.2
20180817051038 54 287 1.0 6.0 0.00 0.61 0.00 91 1018.2
20180817050534 54 287 4.0 7.0 0.00 0.61 0.00 91 1018.2
20180817050035 55 287 5.0 7.0 0.00 0.61 0.00 91 1018.2
20180817045534 55 287 4.0 7.0 0.00 0.61 0.00 91 1018.2
20180817045038 55 287 2.0 7.0 0.00 0.61 0.00 91 1018.1
20180817044534 55 287 3.0 6.0 0.00 0.61 0.00 91 1018.1
20180817044037 55 287 5.0 7.0 0.00 0.61 0.00 91 1018.1
20180817043534 55 287 5.0 7.0 0.00 0.61 0.00 91 1018.0
20180817043037 54 287 7.0 10.0 0.00 0.61 0.00 91 1017.9
20180817042535 54 287 6.0 10.0 0.00 0.61 0.00 91 1017.9
20180817042037 54 287 3.0 7.0 0.00 0.61 0.00 91 1017.9
20180817041534 54 287 0.0 0.0 0.00 0.61 0.00 91 1017.8
20180817041037 54 287 0.0 0.0 0.00 0.61 0.00 91 1017.8
20180817040535 54 287 0.0 0.0 0.00 0.61 0.00 91 1017.8
20180817040034 54 287 0.0 0.0 0.00 0.61 0.00 90 1017.8
20180817035534 54 287 0.0 0.0 0.00 0.61 0.00 90 1017.8
20180817035037 54 287 0.0 0.0 0.00 0.61 0.00 91 1017.7
20180817034534 54 287 0.0 0.0 0.00 0.61 0.00 91 1017.7
20180817034037 53 287 0.0 0.0 0.00 0.61 0.00 90 1017.7
20180817033535 53 287 0.0 0.0 0.00 0.61 0.00 90 1017.7
20180817033038 54 287 0.0 0.0 0.00 0.61 0.00 90 1017.6
20180817032534 54 287 0.0 0.0 0.00 0.61 0.00 90 1017.6
20180817032037 54 287 0.0 0.0 0.00 0.61 0.00 90 1017.6
20180817031535 55 287 0.0 0.0 0.00 0.61 0.00 90 1017.6
20180817031037 55 287 0.0 0.0 0.00 0.61 0.00 90 1017.6
20180817030534 55 287 0.0 0.0 0.00 0.61 0.00 90 1017.6
20180817030035 55 287 0.0 0.0 0.00 0.61 0.00 90 1017.6
20180817025534 55 287 0.0 0.0 0.00 0.61 0.00 90 1017.5
20180817025037 55 287 0.0 0.0 0.00 0.61 0.00 90 1017.5
20180817024534 55 287 0.0 0.0 0.00 0.61 0.00 90 1017.5
20180817024037 55 287 0.0 0.0 0.00 0.61 0.00 89 1017.5
20180817023534 55 287 0.0 0.0 0.00 0.61 0.00 90 1017.4
20180817023036 55 287 0.0 0.0 0.00 0.61 0.00 89 1017.5
20180817022534 55 287 0.0 0.0 0.00 0.61 0.00 89 1017.5
20180817022037 55 287 1.0 3.0 0.00 0.61 0.00 90 1017.4
20180817021534 55 287 0.0 2.0 0.00 0.61 0.00 89 1017.5
20180817021037 55 287 1.0 5.0 0.00 0.61 0.00 89 1017.5
20180817020534 56 287 4.0 7.0 0.00 0.61 0.00 89 1017.5
20180817020035 56 287 3.0 6.0 0.00 0.61 0.00 89 1017.5
20180817015535 56 287 3.0 6.0 0.00 0.61 0.00 89 1017.5
20180817015036 56 287 3.0 5.0 0.00 0.61 0.00 89 1017.5
20180817014533 56 287 5.0 7.0 0.00 0.61 0.00 89 1017.5
20180817014037 56 287 5.0 7.0 0.00 0.61 0.00 89 1017.4
20180817013534 56 287 6.0 7.0 0.00 0.61 0.00 89 1017.4
20180817013037 56 287 6.0 7.0 0.00 0.61 0.00 89 1017.4
20180817012534 56 287 5.0 7.0 0.00 0.61 0.00 89 1017.4
20180817012037 56 287 4.0 7.0 0.00 0.61 0.00 89 1017.4
20180817011534 56 287 5.0 8.0 0.00 0.61 0.00 89 1017.3
20180817011036 56 287 6.0 9.0 0.00 0.61 0.00 89 1017.3
20180817010534 56 287 5.0 7.0 0.00 0.61 0.00 89 1017.2
20180817010035 56 287 6.0 9.0 0.00 0.61 0.00 89 1017.1
20180817005533 56 287 7.0 10.0 0.00 0.61 0.00 89 1017.1
20180817005037 56 287 5.0 9.0 0.00 0.61 0.00 88 1017.1
20180817004534 56 287 5.0 7.0 0.00 0.61 0.00 88 1017.1
20180817004037 56 287 6.0 9.0 0.00 0.61 0.00 89 1017.1
20180817003534 56 287 6.0 10.0 0.00 0.61 0.00 88 1017.1
20180817003036 56 287 5.0 9.0 0.00 0.61 0.00 88 1017.2